Pearl, MS

4:54 PM CST on February 13, 2016 (GMT -0600)
Jackson-Evers International

Weather History for KJAN - November, 2014

Change the Weather History Date:

Saturday, November 22, 2014

  Actual Average Record
Temperature  
Mean Temperature 58 °F 54 °F  
Max Temperature 71 °F 65 °F 84 °F (1921)
Min Temperature 45 °F 42 °F 22 °F (1937)
Degree Days  
Heating Degree Days 7 12  
Month to date heating degree days 335 197  
Since 1 July heating degree days 398 304  
Cooling Degree Days 0 0  
Month to date cooling degree days 2 21  
Year to date cooling degree days 2280 2252  
Growing Degree Days 8 (Base 50)    
Moisture  
Dew Point 48 °F    
Average Humidity 66    
Maximum Humidity 86    
Minimum Humidity 45    
Precipitation  
Precipitation 0.00 in 0.17 in 3.26 in (1979)
Month to date precipitation 3.54 3.33  
Year to date precipitation 51.92 47.56  
Sea Level Pressure  
Sea Level Pressure 30.12 in    
Wind  
Wind Speed 8 mph (SE)    
Max Wind Speed 20 mph    
Max Gust Speed 24 mph    
Visibility 10 miles    
Events      
T = Trace of Precipitation, MM = Missing Value Source: NWS Daily Summary

Daily Weather History Graph

Daily Weather History Graph

Search for Another Location

Airport or City:

Trip Planner

Search our weather history database for the weather conditions in past years. The results will help you decide how hot, cold, wet, or windy it might be!

Date:

Astronomy

Nov. 22, 2014 Rise Set
Actual Time 6:35 AM CST 4:56 PM CST
Civil Twilight 6:09 AM CST 5:23 PM CST
Nautical Twilight 5:39 AM CST 5:53 PM CST
Astronomical Twilight 5:10 AM CST 6:22 PM CST
Moon 6:34 AM CST (11/22) 5:26 PM CST (11/22)
Length of Visible Light 11h 13m
Length of Day
10h 20m
New Moon, 0% of the Moon is Illuminated
Nov 22
New Moon
Nov 29
First Quarter
Dec 6
Full
Dec 14
Last Quarter
Dec 21
New

Hourly Weather History & Observations

Time (CST) Temp. Dew Point Humidity Pressure Visibility Wind Dir Wind Speed Gust Speed Precip Events Conditions
12:54 AM 50.0 °F 45.0 °F 83% 30.28 in 10.0 mi SSE 4.6 mph - N/A   Clear
1:54 AM 46.9 °F 43.0 °F 86% 30.28 in 10.0 mi Calm Calm - N/A   Clear
2:54 AM 50.0 °F 46.0 °F 86% 30.28 in 10.0 mi Calm Calm - N/A   Overcast
3:54 AM 51.1 °F 45.0 °F 80% 30.27 in 10.0 mi Calm Calm - N/A   Mostly Cloudy
4:54 AM 50.0 °F 44.1 °F 80% 30.27 in 10.0 mi ENE 3.5 mph - N/A   Clear
5:54 AM 48.0 °F 43.0 °F 83% 30.27 in 10.0 mi Calm Calm - N/A   Scattered Clouds
6:54 AM 53.1 °F 42.1 °F 66% 30.27 in 10.0 mi SE 4.6 mph - N/A   Mostly Cloudy
7:54 AM 54.0 °F 42.1 °F 64% 30.27 in 10.0 mi SE 9.2 mph - N/A   Mostly Cloudy
8:54 AM 57.9 °F 41.0 °F 53% 30.26 in 10.0 mi SE 12.7 mph 21.9 mph N/A   Scattered Clouds
9:54 AM 63.0 °F 42.1 °F 46% 30.25 in 10.0 mi SE 12.7 mph - N/A   Mostly Cloudy
10:54 AM 66.0 °F 46.0 °F 48% 30.23 in 10.0 mi SE 16.1 mph - N/A   Mostly Cloudy
11:54 AM 68.0 °F 46.9 °F 47% 30.17 in 10.0 mi SSE 15.0 mph - N/A   Mostly Cloudy
12:54 PM 68.0 °F 48.0 °F 49% 30.12 in 10.0 mi SE 9.2 mph - N/A   Mostly Cloudy
1:54 PM 70.0 °F 48.0 °F 46% 30.09 in 10.0 mi South 9.2 mph - N/A   Mostly Cloudy
2:54 PM 70.0 °F 48.9 °F 47% 30.07 in 10.0 mi SE 11.5 mph - N/A   Mostly Cloudy
3:54 PM 68.0 °F 48.9 °F 50% 30.05 in 10.0 mi SE 10.4 mph - N/A   Mostly Cloudy
4:54 PM 64.0 °F 50.0 °F 60% 30.05 in 10.0 mi SE 6.9 mph - N/A   Mostly Cloudy
5:54 PM 61.0 °F 51.1 °F 70% 30.04 in 10.0 mi SE 6.9 mph - N/A   Mostly Cloudy
6:54 PM 59.0 °F 52.0 °F 78% 30.04 in 10.0 mi SE 6.9 mph - N/A   Clear
7:54 PM 61.0 °F 52.0 °F 72% 30.02 in 10.0 mi SE 5.8 mph - N/A   Mostly Cloudy
8:54 PM 60.1 °F 53.1 °F 78% 29.99 in 10.0 mi ESE 9.2 mph - N/A   Clear
9:54 PM 60.1 °F 55.0 °F 83% 29.96 in 10.0 mi SE 12.7 mph - N/A   Clear
10:50 PM 60.8 °F 55.4 °F 82% 29.94 in 10.0 mi SE 9.2 mph - N/A   Mostly Cloudy
10:54 PM 60.1 °F 55.0 °F 83% 29.94 in 10.0 mi SE 11.5 mph - N/A   Scattered Clouds
11:14 PM 61.0 °F 55.0 °F 81% 29.93 in 10.0 mi ESE 12.7 mph - N/A   Mostly Cloudy
11:28 PM 61.0 °F 55.9 °F 83% 29.93 in 10.0 mi ESE 9.2 mph - N/A   Overcast
11:54 PM 61.0 °F 55.9 °F 83% 29.91 in 10.0 mi SE 10.4 mph - N/A   Overcast